contact:dominique.lefevre@mio.osupytheas.fr, maurice.libes@osupytheas.fr, didier.mallarino@osupytheas.fr
Project:EMSO http://www.emso-fr.org/EMSO-France
Depth: 2436.0 m
Title:EMSO Ligure Ouest : Data MII capteur AQUADOPP
Date,Latitude,Longitude,X_East,Y_North,Z_Up,Amplitude_X,Amplitude_Y,Amplitude_Z,Batterie,SoundSpeed,Heading,Pitch,Roll,Pressure,TIS,Speed,Direction
, degrees North, degrees East, m.s-1, m.s-1,m.s-1, 1, 1, 1, Volt, m.s-1, degree, degree, degree, dbar, degree_C, m.s-1, degree
2021-05-30T00:04:03,42.805,6.029,-0.01,-0.011,-0.001,100.0,101.0,102.0,13.4,1505.2,325.1,-0.8,1.8,2470.47,13.28,0.014,222.3
2021-05-30T00:07:03,42.805,6.029,-0.013,-0.027,0.001,103.0,101.0,101.0,13.4,1505.2,325.9,-0.8,1.9,2470.467,13.28,0.029,205.7
2021-05-30T00:10:03,42.805,6.029,-0.024,-0.03,-0.036,101.0,101.0,100.0,13.4,1505.2,326.5,-0.8,1.8,2470.472,13.28,0.038,218.7
2021-05-30T00:13:03,42.805,6.029,-0.024,-0.009,-0.015,101.0,101.0,100.0,13.4,1505.2,328.5,-0.7,1.8,2470.495,13.28,0.025,249.4
2021-05-30T00:16:03,42.805,6.029,-0.02,-0.043,-0.02,102.0,101.0,100.0,13.3,1505.2,327.8,-0.8,1.8,2470.447,13.29,0.047,204.9
2021-05-30T00:19:03,42.805,6.029,-0.02,-0.012,0.028,101.0,102.0,101.0,13.3,1505.2,326.3,-0.8,1.8,2470.445,13.29,0.023,239.0
2021-05-30T00:22:03,42.805,6.029,-0.012,-0.007,0.008,100.0,101.0,101.0,13.4,1505.2,326.8,-0.8,1.8,2470.455,13.29,0.013,239.7
2021-05-30T00:25:03,42.805,6.029,-0.028,-0.027,-0.02,101.0,101.0,101.0,13.4,1505.2,326.5,-0.8,1.8,2470.46,13.29,0.038,226.0
2021-05-30T00:28:03,42.805,6.029,-0.001,-0.019,-0.002,100.0,99.0,101.0,13.4,1505.2,327.9,-0.7,1.8,2470.465,13.29,0.019,183.0
2021-05-30T00:31:03,42.805,6.029,-0.031,0.003,0.014,101.0,101.0,100.0,13.4,1505.2,328.1,-0.7,1.8,2470.462,13.29,0.031,275.5
2021-05-30T00:34:03,42.805,6.029,-0.019,-0.018,-0.029,101.0,101.0,101.0,13.3,1505.2,324.4,-0.7,1.8,2470.455,13.29,0.026,226.5
2021-05-30T00:37:03,42.805,6.029,0.01,-0.018,0.027,101.0,102.0,101.0,13.4,1505.2,326.2,-0.8,1.8,2470.424,13.29,0.02,150.9
2021-05-30T00:40:03,42.805,6.029,0.019,-0.012,-0.017,102.0,101.0,100.0,13.4,1505.2,328.5,-0.8,1.8,2470.437,13.29,0.022,122.3
2021-05-30T00:43:03,42.805,6.029,-0.018,-0.005,0.029,101.0,103.0,100.0,13.4,1505.2,327.1,-0.7,1.8,2470.474,13.29,0.018,254.5
2021-05-30T00:46:03,42.805,6.029,0.0,-0.027,0.025,101.0,102.0,101.0,13.4,1505.2,326.6,-0.8,1.9,2470.464,13.29,0.026,180.0
2021-05-30T00:49:03,42.805,6.029,-0.022,-0.025,-0.004,102.0,102.0,101.0,13.4,1505.2,329.7,-0.7,1.8,2470.484,13.29,0.033,221.3
2021-05-30T00:52:03,42.805,6.029,-0.006,-0.022,-0.014,101.0,101.0,100.0,13.4,1505.2,325.5,-0.8,1.8,2470.448,13.29,0.022,195.3
2021-05-30T00:55:03,42.805,6.029,-0.009,-0.03,-0.019,100.0,104.0,101.0,13.3,1505.2,325.2,-0.7,1.8,2470.443,13.29,0.031,196.7
2021-05-30T00:58:03,42.805,6.029,-0.02,0.001,-0.006,101.0,101.0,101.0,13.4,1505.2,324.5,-0.7,1.8,2470.411,13.29,0.02,272.9
2021-05-30T01:04:03,42.805,6.029,-0.019,-0.019,0.007,101.0,102.0,101.0,13.3,1505.2,325.3,-0.8,1.8,2470.497,13.28,0.026,225.0
2021-05-30T01:07:03,42.805,6.029,0.016,-0.015,-0.016,102.0,100.0,101.0,13.4,1505.2,326.9,-0.8,1.9,2470.423,13.28,0.021,133.1
2021-05-30T01:10:03,42.805,6.029,-0.013,-0.026,0.016,102.0,100.0,101.0,13.4,1505.2,328.1,-0.8,1.8,2470.439,13.28,0.029,206.6
2021-05-30T01:13:03,42.805,6.029,-0.025,-0.02,0.023,102.0,101.0,101.0,13.4,1505.2,328.8,-0.7,1.8,2470.446,13.28,0.032,231.3
2021-05-30T01:16:03,42.805,6.029,-0.004,-0.023,0.002,100.0,102.0,102.0,13.4,1505.2,324.3,-0.8,1.8,2470.414,13.28,0.023,189.9
2021-05-30T01:19:03,42.805,6.029,-0.016,-0.004,-0.018,102.0,101.0,101.0,13.4,1505.2,327.4,-0.8,1.8,2470.426,13.28,0.016,256.0
2021-05-30T01:22:03,42.805,6.029,-0.005,-0.024,-0.019,100.0,101.0,101.0,13.4,1505.2,328.5,-0.8,1.8,2470.461,13.28,0.024,191.8
2021-05-30T01:25:03,42.805,6.029,0.0,-0.021,0.0,101.0,100.0,102.0,13.4,1505.2,326.1,-0.7,1.8,2470.372,13.28,0.021,180.0
2021-05-30T01:28:03,42.805,6.029,0.004,-0.015,-0.009,100.0,105.0,101.0,13.4,1505.2,326.1,-0.8,1.8,2470.453,13.28,0.015,165.1
2021-05-30T01:31:03,42.805,6.029,-0.012,-0.03,-0.005,101.0,101.0,101.0,13.3,1505.2,327.1,-0.7,1.8,2470.418,13.28,0.032,201.8
2021-05-30T01:34:03,42.805,6.029,0.006,-0.009,0.013,102.0,103.0,100.0,13.4,1505.2,327.2,-0.8,1.8,2470.434,13.28,0.01,146.3
2021-05-30T01:37:03,42.805,6.029,-0.012,-0.015,0.009,102.0,102.0,101.0,13.4,1505.2,326.9,-0.8,1.9,2470.444,13.28,0.019,218.7
2021-05-30T01:40:03,42.805,6.029,-0.009,-0.001,0.007,103.0,101.0,101.0,13.4,1505.2,324.9,-0.8,1.8,2470.395,13.28,0.009,263.7
2021-05-30T01:43:03,42.805,6.029,0.003,-0.015,0.006,101.0,102.0,101.0,13.4,1505.2,328.4,-0.7,1.8,2470.44,13.28,0.015,168.7
2021-05-30T01:46:03,42.805,6.029,0.004,-0.016,-0.011,102.0,102.0,100.0,13.4,1505.2,328.2,-0.7,1.8,2470.414,13.28,0.016,166.0
2021-05-30T01:49:03,42.805,6.029,-0.014,-0.031,0.005,102.0,104.0,100.0,13.3,1505.2,324.0,-0.8,1.8,2470.41,13.28,0.034,204.3
2021-05-30T01:52:03,42.805,6.029,-0.011,-0.021,-0.021,101.0,102.0,101.0,13.4,1505.2,326.9,-0.7,1.8,2470.41,13.28,0.023,207.6
2021-05-30T01:55:03,42.805,6.029,-0.022,-0.02,-0.008,102.0,100.0,100.0,13.4,1505.2,328.0,-0.7,1.8,2470.405,13.28,0.029,227.7
2021-05-30T01:58:03,42.805,6.029,0.003,-0.028,-0.007,103.0,102.0,100.0,13.4,1505.2,327.6,-0.7,1.8,2470.386,13.28,0.028,173.9
2021-05-30T02:04:03,42.805,6.029,-0.02,-0.004,0.004,101.0,102.0,101.0,13.4,1505.2,325.5,-0.7,1.8,2470.447,13.28,0.02,258.7
2021-05-30T02:07:03,42.805,6.029,-0.006,-0.021,-0.012,102.0,101.0,101.0,13.4,1505.2,328.2,-0.8,1.8,2470.376,13.28,0.021,195.9
2021-05-30T02:10:03,42.805,6.029,-0.005,-0.026,0.005,102.0,102.0,100.0,13.4,1505.2,325.6,-0.8,1.8,2470.392,13.28,0.026,190.9
2021-05-30T02:13:03,42.805,6.029,-0.02,-0.029,-0.041,102.0,104.0,101.0,13.4,1505.2,327.3,-0.7,1.8,2470.387,13.29,0.035,214.6
2021-05-30T02:16:03,42.805,6.029,-0.036,-0.018,-0.013,101.0,104.0,100.0,13.4,1505.2,325.5,-0.7,1.8,2470.402,13.29,0.04,243.4
2021-05-30T02:19:03,42.805,6.029,-0.022,-0.018,-0.018,100.0,102.0,101.0,13.3,1505.2,329.9,-0.7,1.8,2470.409,13.29,0.028,230.7
2021-05-30T02:22:03,42.805,6.029,-0.003,-0.041,-0.031,101.0,102.0,100.0,13.4,1505.2,324.4,-0.7,1.8,2470.402,13.29,0.041,184.2
2021-05-30T02:25:03,42.805,6.029,0.005,-0.02,-0.005,103.0,102.0,101.0,13.4,1505.2,324.7,-0.8,1.8,2470.417,13.29,0.02,166.0
2021-05-30T02:28:03,42.805,6.029,-0.014,-0.008,-0.013,102.0,103.0,100.0,13.4,1505.2,328.3,-0.8,1.8,2470.422,13.29,0.016,240.3
2021-05-30T02:31:03,42.805,6.029,-0.015,-0.012,0.006,103.0,104.0,101.0,13.3,1505.2,328.3,-0.8,1.8,2470.396,13.29,0.019,231.3
2021-05-30T02:34:03,42.805,6.029,-0.008,-0.015,-0.005,102.0,100.0,102.0,13.4,1505.2,327.0,-0.8,1.8,2470.373,13.29,0.017,208.1
2021-05-30T02:37:03,42.805,6.029,-0.013,-0.027,-0.031,102.0,104.0,100.0,13.4,1505.2,325.7,-0.8,1.8,2470.381,13.29,0.029,205.7
2021-05-30T02:40:03,42.805,6.029,-0.006,-0.011,0.01,100.0,102.0,99.0,13.4,1505.2,328.9,-0.8,1.8,2470.394,13.29,0.012,208.6
2021-05-30T02:43:03,42.805,6.029,-0.006,-0.008,0.022,102.0,101.0,103.0,13.4,1505.2,330.1,-0.8,1.9,2470.334,13.29,0.01,216.9
2021-05-30T02:46:03,42.805,6.029,-0.011,-0.022,0.017,102.0,101.0,100.0,13.4,1505.2,329.4,-0.7,1.8,2470.368,13.29,0.024,206.6
2021-05-30T02:49:03,42.805,6.029,-0.004,-0.008,0.011,102.0,102.0,100.0,13.4,1505.2,326.0,-0.7,1.8,2470.387,13.29,0.008,206.6
2021-05-30T02:52:03,42.805,6.029,-0.024,-0.013,-0.004,101.0,102.0,101.0,13.4,1505.2,328.7,-0.8,1.8,2470.37,13.28,0.027,241.6
2021-05-30T02:55:03,42.805,6.029,-0.019,-0.018,-0.009,100.0,102.0,100.0,13.4,1505.2,325.9,-0.8,1.8,2470.35,13.28,0.026,226.5
2021-05-30T02:58:03,42.805,6.029,-0.029,-0.014,-0.018,102.0,102.0,100.0,13.4,1505.2,327.3,-0.7,1.9,2470.332,13.28,0.032,244.2
2021-05-30T03:04:03,42.805,6.029,0.0,0.001,0.007,101.0,101.0,101.0,13.4,1505.2,326.0,-0.7,1.8,2470.379,13.28,0.001,0.0
2021-05-30T03:07:03,42.805,6.029,-0.03,-0.003,-0.021,102.0,102.0,101.0,13.3,1505.2,327.6,-0.7,1.8,2470.353,13.28,0.03,264.3
2021-05-30T03:10:03,42.805,6.029,-0.034,0.002,-0.011,103.0,101.0,101.0,13.4,1505.2,329.2,-0.7,1.8,2470.409,13.28,0.034,273.4
2021-05-30T03:13:03,42.805,6.029,-0.002,-0.008,0.022,102.0,102.0,101.0,13.4,1505.2,327.7,-0.7,1.9,2470.337,13.28,0.008,194.0
2021-05-30T03:16:03,42.805,6.029,-0.016,-0.021,-0.006,102.0,102.0,100.0,13.3,1505.2,326.3,-0.8,1.8,2470.276,13.29,0.026,217.3
2021-05-30T03:19:03,42.805,6.029,-0.017,-0.027,-0.033,102.0,101.0,101.0,13.4,1505.2,328.5,-0.7,1.9,2470.301,13.29,0.031,212.2
2021-05-30T03:22:03,42.805,6.029,-0.016,-0.028,-0.024,103.0,102.0,101.0,13.4,1505.2,328.2,-0.7,1.8,2470.294,13.29,0.032,209.7
2021-05-30T03:25:03,42.805,6.029,-0.008,-0.004,0.004,103.0,102.0,101.0,13.4,1505.2,327.9,-0.7,1.8,2470.346,13.29,0.008,243.4
2021-05-30T03:28:03,42.805,6.029,0.012,-0.012,0.017,101.0,102.0,100.0,13.4,1505.2,327.1,-0.7,1.8,2470.351,13.29,0.016,135.0
2021-05-30T03:31:03,42.805,6.029,0.002,-0.012,0.011,103.0,102.0,100.0,13.3,1505.2,327.2,-0.7,1.8,2470.318,13.29,0.012,170.5
2021-05-30T03:34:03,42.805,6.029,-0.018,-0.022,-0.011,101.0,102.0,101.0,13.4,1505.2,328.3,-0.7,1.8,2470.355,13.29,0.028,219.3
2021-05-30T03:37:03,42.805,6.029,-0.01,-0.028,-0.015,102.0,102.0,100.0,13.4,1505.2,327.7,-0.8,1.8,2470.345,13.29,0.029,199.6
2021-05-30T03:40:03,42.805,6.029,-0.019,-0.01,0.002,101.0,101.0,100.0,13.4,1505.2,328.7,-0.7,1.8,2470.328,13.29,0.021,242.2
2021-05-30T03:43:03,42.805,6.029,0.009,-0.028,-0.026,105.0,101.0,101.0,13.3,1505.2,325.9,-0.7,1.8,2470.314,13.28,0.029,162.2
2021-05-30T03:46:03,42.805,6.029,-0.004,-0.025,0.009,104.0,102.0,100.0,13.4,1505.2,327.4,-0.7,1.8,2470.335,13.28,0.025,189.1
2021-05-30T03:49:03,42.805,6.029,-0.021,-0.02,-0.005,102.0,101.0,101.0,13.4,1505.2,326.0,-0.7,1.8,2470.303,13.28,0.028,226.4
2021-05-30T03:52:03,42.805,6.029,-0.016,-0.01,0.012,101.0,101.0,102.0,13.3,1505.2,326.9,-0.8,1.8,2470.334,13.28,0.018,238.0
2021-05-30T03:55:03,42.805,6.029,-0.015,-0.01,0.014,100.0,102.0,101.0,13.4,1505.2,327.1,-0.8,1.8,2470.324,13.28,0.018,236.3
2021-05-30T03:58:03,42.805,6.029,-0.007,-0.01,-0.002,102.0,102.0,101.0,13.4,1505.2,326.7,-0.7,1.9,2470.305,13.28,0.012,215.0
2021-05-30T04:04:03,42.805,6.029,0.002,-0.017,0.011,103.0,103.0,102.0,13.3,1505.2,326.9,-0.7,1.8,2470.369,13.28,0.017,173.3
2021-05-30T04:07:03,42.805,6.029,-0.013,-0.014,-0.028,103.0,101.0,101.0,13.3,1505.2,325.6,-0.7,1.8,2470.326,13.28,0.019,222.9
2021-05-30T04:10:03,42.805,6.029,0.006,-0.013,0.001,102.0,103.0,99.0,13.4,1505.2,326.1,-0.7,1.8,2470.328,13.28,0.014,155.2
2021-05-30T04:13:03,42.805,6.029,-0.011,-0.007,0.01,103.0,102.0,100.0,13.4,1505.2,325.5,-0.7,1.8,2470.319,13.28,0.013,237.5
2021-05-30T04:16:03,42.805,6.029,-0.007,-0.015,0.032,102.0,102.0,100.0,13.4,1505.2,326.5,-0.7,1.8,2470.338,13.28,0.016,205.0
2021-05-30T04:19:03,42.805,6.029,-0.002,-0.003,0.009,102.0,102.0,101.0,13.4,1505.2,325.7,-0.8,1.8,2470.332,13.29,0.003,213.7
2021-05-30T04:22:03,42.805,6.029,0.0,-0.015,0.0,102.0,103.0,101.0,13.4,1505.2,327.2,-0.7,1.8,2470.339,13.29,0.015,180.0
2021-05-30T04:25:03,42.805,6.029,-0.013,-0.012,0.008,103.0,103.0,102.0,13.4,1505.2,328.5,-0.7,1.8,2470.287,13.29,0.017,227.3
2021-05-30T04:28:03,42.805,6.029,-0.001,-0.03,0.005,102.0,102.0,101.0,13.3,1505.2,328.7,-0.7,1.8,2470.37,13.29,0.03,181.9
2021-05-30T04:31:03,42.805,6.029,-0.006,-0.029,0.019,102.0,102.0,102.0,13.3,1505.2,325.7,-0.8,1.8,2470.322,13.29,0.029,191.7
2021-05-30T04:34:03,42.805,6.029,-0.034,-0.014,-0.005,101.0,103.0,101.0,13.4,1505.2,326.6,-0.7,1.8,2470.299,13.29,0.036,247.6
2021-05-30T04:37:03,42.805,6.029,-0.017,-0.007,0.039,103.0,103.0,100.0,13.3,1505.2,329.6,-0.8,1.8,2470.34,13.29,0.018,247.6
2021-05-30T04:40:03,42.805,6.029,-0.026,0.009,0.004,104.0,99.0,100.0,13.4,1505.2,328.8,-0.8,1.8,2470.307,13.29,0.027,289.1
2021-05-30T04:43:03,42.805,6.029,0.0,-0.032,-0.02,103.0,102.0,101.0,13.3,1505.2,326.7,-0.7,1.8,2470.276,13.29,0.032,180.0
2021-05-30T04:46:03,42.805,6.029,-0.014,-0.017,-0.031,102.0,101.0,101.0,13.4,1505.2,327.2,-0.7,1.8,2470.308,13.29,0.022,219.5
2021-05-30T04:49:03,42.805,6.029,-0.017,-0.033,-0.013,102.0,101.0,102.0,13.4,1505.2,328.5,-0.8,1.8,2470.288,13.29,0.037,207.3
2021-05-30T04:52:03,42.805,6.029,-0.022,-0.032,0.005,99.0,104.0,102.0,13.4,1505.2,326.0,-0.7,1.9,2470.314,13.29,0.038,214.5
2021-05-30T04:55:03,42.805,6.029,-0.02,-0.034,-0.001,102.0,102.0,100.0,13.4,1505.2,328.6,-0.8,1.8,2470.325,13.29,0.039,210.5
2021-05-30T04:58:03,42.805,6.029,-0.016,-0.021,0.016,102.0,101.0,100.0,13.4,1505.2,327.7,-0.8,1.8,2470.326,13.29,0.026,217.3
2021-05-30T05:04:03,42.805,6.029,-0.001,-0.019,0.002,101.0,101.0,101.0,13.3,1505.2,326.2,-0.8,1.8,2470.331,13.28,0.019,183.0
2021-05-30T05:07:03,42.805,6.029,-0.015,-0.013,-0.022,101.0,103.0,100.0,13.4,1505.2,325.6,-0.7,1.8,2470.303,13.28,0.019,229.1
2021-05-30T05:10:03,42.805,6.029,-0.04,-0.009,-0.024,102.0,101.0,101.0,13.4,1505.2,328.3,-0.7,1.9,2470.307,13.28,0.041,257.3
2021-05-30T05:13:03,42.805,6.029,-0.02,-0.013,0.006,102.0,100.0,100.0,13.3,1505.2,328.3,-0.7,1.8,2470.312,13.28,0.023,237.0
2021-05-30T05:16:03,42.805,6.029,-0.033,-0.02,0.007,101.0,102.0,100.0,13.3,1505.2,326.9,-0.7,1.8,2470.309,13.28,0.038,238.8
2021-05-30T05:19:03,42.805,6.029,-0.022,-0.008,0.011,101.0,101.0,100.0,13.4,1505.2,325.7,-0.7,1.8,2470.331,13.29,0.023,250.0
2021-05-30T05:22:03,42.805,6.029,-0.016,0.002,0.001,103.0,101.0,99.0,13.4,1505.2,327.5,-0.8,1.8,2470.3,13.29,0.016,277.1
2021-05-30T05:25:03,42.805,6.029,-0.015,-0.016,-0.006,99.0,102.0,101.0,13.4,1505.2,327.2,-0.8,1.8,2470.263,13.29,0.021,223.1
2021-05-30T05:28:03,42.805,6.029,-0.017,-0.011,0.026,102.0,99.0,100.0,13.4,1505.2,327.9,-0.8,1.8,2470.278,13.29,0.02,237.1
2021-05-30T05:31:03,42.805,6.029,-0.015,-0.018,0.015,101.0,100.0,103.0,13.4,1505.2,327.6,-0.7,1.8,2470.309,13.29,0.023,219.8
2021-05-30T05:34:03,42.805,6.029,-0.022,-0.004,-0.004,101.0,101.0,100.0,13.4,1505.2,326.0,-0.7,1.8,2470.307,13.29,0.022,259.7
2021-05-30T05:37:03,42.805,6.029,-0.018,-0.001,-0.002,101.0,100.0,100.0,13.4,1505.2,327.3,-0.8,1.8,2470.251,13.29,0.018,266.8
2021-05-30T05:40:03,42.805,6.029,-0.007,-0.029,-0.039,103.0,103.0,100.0,13.4,1505.2,327.9,-0.8,1.8,2470.305,13.29,0.029,193.6
2021-05-30T05:43:03,42.805,6.029,-0.03,-0.003,0.009,100.0,101.0,101.0,13.3,1505.2,325.9,-0.7,1.8,2470.33,13.29,0.03,264.3
2021-05-30T05:46:03,42.805,6.029,-0.004,-0.024,-0.01,102.0,102.0,100.0,13.4,1505.2,329.4,-0.8,1.8,2470.294,13.29,0.024,189.5
2021-05-30T05:49:03,42.805,6.029,-0.024,-0.021,0.0,102.0,103.0,101.0,13.4,1505.2,327.7,-0.7,1.8,2470.337,13.29,0.031,228.8
2021-05-30T05:52:03,42.805,6.029,-0.016,-0.029,-0.006,102.0,102.0,101.0,13.4,1505.2,325.1,-0.7,1.8,2470.302,13.29,0.033,208.9
2021-05-30T05:55:03,42.805,6.029,-0.014,-0.03,-0.019,100.0,101.0,101.0,13.4,1505.2,324.4,-0.7,1.8,2470.295,13.29,0.033,205.0
2021-05-30T05:58:03,42.805,6.029,-0.03,-0.016,0.0,100.0,101.0,101.0,13.3,1505.2,327.4,-0.7,1.8,2470.278,13.29,0.034,241.9
2021-05-30T06:04:03,42.805,6.029,-0.028,-0.009,-0.008,102.0,101.0,100.0,13.4,1505.2,326.1,-0.8,1.8,2470.353,13.28,0.029,252.2
2021-05-30T06:07:03,42.805,6.029,-0.042,-0.022,0.019,102.0,100.0,101.0,13.4,1505.2,328.9,-0.7,1.8,2470.34,13.28,0.047,242.4
2021-05-30T06:10:03,42.805,6.029,-0.015,-0.012,0.004,100.0,100.0,102.0,13.4,1505.2,326.6,-0.8,1.8,2470.307,13.28,0.019,231.3
2021-05-30T06:13:03,42.805,6.029,-0.017,0.001,0.022,102.0,101.0,101.0,13.4,1505.2,324.5,-0.8,1.8,2470.351,13.28,0.017,273.4
2021-05-30T06:16:03,42.805,6.029,-0.019,-0.027,-0.031,100.0,102.0,101.0,13.4,1505.2,324.3,-0.8,1.8,2470.307,13.29,0.033,215.1
2021-05-30T06:19:03,42.805,6.029,0.002,-0.03,-0.008,102.0,101.0,102.0,13.4,1505.2,326.4,-0.7,1.8,2470.295,13.29,0.03,176.2
2021-05-30T06:22:03,42.805,6.029,-0.01,-0.018,0.015,101.0,101.0,101.0,13.3,1505.2,328.2,-0.8,1.8,2470.304,13.29,0.02,209.1
2021-05-30T06:25:03,42.805,6.029,-0.018,-0.034,-0.031,105.0,100.0,101.0,13.4,1505.2,327.0,-0.8,1.8,2470.345,13.29,0.038,207.9
2021-05-30T06:28:03,42.805,6.029,-0.035,-0.016,-0.001,101.0,105.0,100.0,13.4,1505.2,324.2,-0.8,1.8,2470.328,13.29,0.038,245.4
2021-05-30T06:31:03,42.805,6.029,0.0,-0.009,0.01,100.0,100.0,101.0,13.4,1505.2,326.7,-0.7,1.8,2470.312,13.29,0.009,180.0
2021-05-30T06:34:03,42.805,6.029,-0.033,-0.009,0.01,101.0,101.0,100.0,13.3,1505.2,328.3,-0.8,1.8,2470.355,13.29,0.034,254.7
2021-05-30T06:37:03,42.805,6.029,-0.01,-0.026,0.006,101.0,102.0,99.0,13.3,1505.2,328.2,-0.7,1.8,2470.386,13.29,0.027,201.0
2021-05-30T06:40:03,42.805,6.029,-0.032,-0.027,-0.005,102.0,101.0,100.0,13.3,1505.2,326.8,-0.7,1.9,2470.307,13.29,0.041,229.8
2021-05-30T06:43:03,42.805,6.029,-0.015,-0.021,-0.028,101.0,100.0,102.0,13.4,1505.2,327.9,-0.7,1.8,2470.309,13.29,0.025,215.5
2021-05-30T06:46:03,42.805,6.029,-0.02,-0.016,0.005,99.0,103.0,101.0,13.4,1505.2,329.6,-0.8,1.8,2470.33,13.29,0.025,231.3
2021-05-30T06:49:03,42.805,6.029,-0.026,-0.01,0.001,102.0,101.0,100.0,13.4,1505.2,325.0,-0.8,1.8,2470.319,13.29,0.027,249.0
2021-05-30T06:52:03,42.805,6.029,-0.029,-0.022,-0.012,102.0,100.0,100.0,13.4,1505.2,328.6,-0.7,1.8,2470.336,13.29,0.036,232.8
2021-05-30T06:55:03,42.805,6.029,-0.008,-0.029,-0.008,101.0,100.0,101.0,13.4,1505.2,325.9,-0.7,1.8,2470.309,13.29,0.03,195.4
2021-05-30T06:58:03,42.805,6.029,-0.04,-0.002,0.007,101.0,101.0,100.0,13.4,1505.2,326.0,-0.8,1.8,2470.325,13.29,0.04,267.1
2021-05-30T07:04:03,42.805,6.029,-0.003,-0.027,-0.018,101.0,102.0,100.0,13.3,1505.2,324.6,-0.7,1.8,2470.321,13.28,0.027,186.3
2021-05-30T07:07:03,42.805,6.029,-0.01,-0.017,-0.004,100.0,102.0,102.0,13.3,1505.2,326.0,-0.8,1.8,2470.359,13.28,0.019,210.5
2021-05-30T07:10:03,42.805,6.029,-0.014,-0.037,-0.023,103.0,98.0,101.0,13.4,1505.2,328.9,-0.8,1.8,2470.297,13.28,0.039,200.7
2021-05-30T07:13:03,42.805,6.029,-0.026,-0.016,0.006,102.0,102.0,100.0,13.3,1505.2,324.8,-0.7,1.8,2470.34,13.28,0.03,238.4
2021-05-30T07:16:03,42.805,6.029,-0.023,-0.022,-0.022,101.0,102.0,100.0,13.4,1505.2,326.3,-0.8,1.8,2470.302,13.28,0.031,226.3
2021-05-30T07:19:03,42.805,6.029,-0.026,-0.03,0.013,102.0,101.0,99.0,13.4,1505.2,326.3,-0.7,1.8,2470.341,13.29,0.039,220.9
2021-05-30T07:22:03,42.805,6.029,-0.029,-0.012,-0.027,102.0,100.0,101.0,13.4,1505.2,328.4,-0.8,1.8,2470.322,13.29,0.031,247.5
2021-05-30T07:25:03,42.805,6.029,-0.011,-0.026,-0.007,101.0,101.0,100.0,13.4,1505.2,325.2,-0.8,1.8,2470.331,13.29,0.028,202.9
2021-05-30T07:28:03,42.805,6.029,-0.029,-0.001,0.002,101.0,101.0,100.0,13.4,1505.2,326.7,-0.8,1.8,2470.353,13.29,0.029,268.0
2021-05-30T07:31:03,42.805,6.029,-0.013,-0.031,-0.001,101.0,100.0,101.0,13.4,1505.2,327.7,-0.8,1.8,2470.38,13.29,0.033,202.7
2021-05-30T07:34:03,42.805,6.029,-0.021,-0.018,-0.013,101.0,101.0,99.0,13.4,1505.2,328.1,-0.7,1.8,2470.351,13.29,0.027,229.4
2021-05-30T07:37:03,42.805,6.029,-0.025,-0.008,-0.007,101.0,101.0,100.0,13.4,1505.2,325.1,-0.7,1.8,2470.336,13.29,0.026,252.3
2021-05-30T07:40:03,42.805,6.029,-0.034,-0.015,0.01,102.0,100.0,101.0,13.3,1505.2,326.9,-0.7,1.8,2470.354,13.29,0.037,246.2
2021-05-30T07:43:03,42.805,6.029,-0.033,0.003,0.025,101.0,102.0,100.0,13.4,1505.2,327.9,-0.7,1.8,2470.341,13.29,0.033,275.2
2021-05-30T07:46:03,42.805,6.029,-0.019,-0.017,0.02,101.0,103.0,100.0,13.4,1505.2,324.9,-0.8,1.8,2470.348,13.29,0.025,228.2
2021-05-30T07:49:03,42.805,6.029,-0.013,-0.02,-0.004,100.0,101.0,101.0,13.4,1505.2,326.9,-0.7,1.8,2470.345,13.29,0.023,213.0
2021-05-30T07:52:03,42.805,6.029,-0.028,-0.004,0.005,100.0,102.0,99.0,13.4,1505.2,329.3,-0.7,1.8,2470.329,13.29,0.028,261.9
2021-05-30T07:55:03,42.805,6.029,-0.039,-0.019,-0.045,101.0,101.0,101.0,13.3,1505.2,324.3,-0.8,1.8,2470.381,13.29,0.043,244.0
2021-05-30T07:58:03,42.805,6.029,-0.021,-0.029,0.002,100.0,101.0,100.0,13.4,1505.2,324.9,-0.8,1.8,2470.376,13.29,0.035,215.9
2021-05-30T08:04:03,42.805,6.029,-0.036,-0.002,-0.018,101.0,100.0,99.0,13.4,1505.2,326.1,-0.8,1.9,2470.379,13.28,0.036,266.8
2021-05-30T08:07:03,42.805,6.029,-0.03,-0.017,-0.005,100.0,101.0,101.0,13.4,1505.2,324.5,-0.7,1.8,2470.364,13.28,0.034,240.5
2021-05-30T08:10:03,42.805,6.029,-0.005,-0.02,0.0,103.0,100.0,100.0,13.4,1505.2,327.7,-0.7,1.8,2470.39,13.29,0.02,194.0
2021-05-30T08:13:03,42.805,6.029,0.006,-0.007,0.03,103.0,100.0,100.0,13.4,1505.2,327.5,-0.8,1.8,2470.382,13.29,0.009,139.4
2021-05-30T08:16:03,42.805,6.029,-0.029,0.0,0.006,102.0,101.0,100.0,13.4,1505.2,326.7,-0.8,1.8,2470.375,13.29,0.028,270.0
2021-05-30T08:19:03,42.805,6.029,-0.022,-0.009,0.003,101.0,101.0,100.0,13.4,1505.2,326.3,-0.7,1.8,2470.379,13.29,0.023,247.8
2021-05-30T08:22:03,42.805,6.029,-0.048,-0.007,-0.011,101.0,100.0,102.0,13.4,1505.2,329.5,-0.7,1.8,2470.395,13.29,0.048,261.7
2021-05-30T08:25:03,42.805,6.029,-0.016,-0.022,-0.018,100.0,102.0,100.0,13.4,1505.2,328.2,-0.7,1.8,2470.369,13.29,0.027,216.0
2021-05-30T08:28:03,42.805,6.029,-0.003,-0.013,0.044,106.0,102.0,100.0,13.4,1505.2,329.5,-0.7,1.8,2470.367,13.29,0.013,193.0
2021-05-30T08:31:03,42.805,6.029,-0.002,-0.02,-0.014,102.0,100.0,100.0,13.4,1505.2,325.9,-0.7,1.8,2470.398,13.29,0.02,185.7
2021-05-30T08:34:03,42.805,6.029,-0.041,-0.035,-0.046,100.0,100.0,100.0,13.4,1505.2,325.9,-0.7,1.8,2470.374,13.29,0.053,229.5
2021-05-30T08:37:03,42.805,6.029,-0.028,-0.013,0.011,102.0,100.0,100.0,13.4,1505.2,327.1,-0.8,1.8,2470.376,13.29,0.03,245.1
2021-05-30T08:40:03,42.805,6.029,-0.01,-0.002,0.028,101.0,102.0,101.0,13.4,1505.2,329.6,-0.8,1.8,2470.38,13.29,0.01,258.7
2021-05-30T08:43:03,42.805,6.029,-0.018,-0.014,0.025,101.0,102.0,101.0,13.3,1505.2,325.5,-0.8,1.8,2470.369,13.29,0.022,232.1
2021-05-30T08:46:03,42.805,6.029,-0.015,-0.029,-0.002,101.0,101.0,100.0,13.3,1505.2,325.7,-0.8,1.8,2470.39,13.29,0.032,207.4
2021-05-30T08:49:03,42.805,6.029,-0.014,-0.02,-0.035,102.0,102.0,101.0,13.4,1505.2,328.8,-0.7,1.8,2470.373,13.29,0.024,215.0
2021-05-30T08:52:03,42.805,6.029,-0.007,0.002,0.004,100.0,101.0,100.0,13.4,1505.2,324.4,-0.7,1.8,2470.381,13.29,0.007,285.9
2021-05-30T08:55:03,42.805,6.029,-0.016,-0.012,-0.01,101.0,100.0,100.0,13.3,1505.2,324.4,-0.7,1.8,2470.401,13.29,0.02,233.1
2021-05-30T08:58:03,42.805,6.029,-0.003,-0.027,-0.033,101.0,103.0,100.0,13.4,1505.2,328.0,-0.7,1.8,2470.412,13.29,0.027,186.3
2021-05-30T09:04:03,42.805,6.029,-0.015,-0.011,-0.005,101.0,102.0,101.0,13.4,1505.2,327.5,-0.7,1.8,2470.417,13.29,0.018,233.7
2021-05-30T09:07:03,42.805,6.029,-0.033,-0.015,0.003,102.0,101.0,101.0,13.3,1505.2,328.2,-0.7,1.8,2470.377,13.29,0.036,245.6
2021-05-30T09:10:03,42.805,6.029,-0.009,-0.015,0.008,101.0,100.0,101.0,13.4,1505.2,328.8,-0.7,1.8,2470.406,13.29,0.017,211.0
2021-05-30T09:13:03,42.805,6.029,0.0,-0.029,0.006,101.0,100.0,101.0,13.3,1505.2,329.6,-0.7,1.8,2470.441,13.29,0.028,180.0
2021-05-30T09:16:03,42.805,6.029,0.003,-0.017,0.0,100.0,106.0,100.0,13.4,1505.2,325.5,-0.7,1.8,2470.431,13.29,0.017,170.0
2021-05-30T09:19:03,42.805,6.029,-0.03,0.0,-0.007,101.0,101.0,101.0,13.3,1505.2,328.2,-0.8,1.8,2470.402,13.29,0.03,270.0
2021-05-30T09:22:03,42.805,6.029,0.025,-0.024,-0.013,101.0,101.0,100.0,13.4,1505.2,326.2,-0.8,1.8,2470.413,13.29,0.034,133.8
2021-05-30T09:25:03,42.805,6.029,-0.023,0.001,0.02,102.0,103.0,99.0,13.3,1505.2,330.2,-0.8,1.9,2470.391,13.29,0.023,272.5
2021-05-30T09:28:03,42.805,6.029,-0.025,-0.013,0.002,107.0,103.0,99.0,13.4,1505.2,325.1,-0.8,1.8,2470.441,13.29,0.028,242.5
2021-05-30T09:31:03,42.805,6.029,0.001,-0.008,0.016,102.0,102.0,103.0,13.4,1505.2,326.7,-0.8,1.8,2470.381,13.29,0.008,172.9
2021-05-30T09:34:03,42.805,6.029,-0.02,-0.023,0.019,103.0,103.0,99.0,13.4,1505.2,326.6,-0.8,1.8,2470.412,13.29,0.03,221.0
2021-05-30T09:37:03,42.805,6.029,-0.029,-0.011,-0.029,102.0,100.0,106.0,13.4,1505.2,328.3,-0.8,1.8,2470.364,13.29,0.031,249.2
2021-05-30T09:40:03,42.805,6.029,-0.014,-0.027,-0.001,102.0,102.0,100.0,13.4,1505.2,327.2,-0.8,1.8,2470.359,13.29,0.03,207.4
2021-05-30T09:43:03,42.805,6.029,-0.029,-0.009,-0.003,101.0,101.0,103.0,13.3,1505.2,328.2,-0.7,1.8,2470.372,13.29,0.03,252.8
2021-05-30T09:46:03,42.805,6.029,-0.037,-0.022,-0.008,104.0,100.0,101.0,13.4,1505.2,326.3,-0.8,1.8,2470.411,13.29,0.043,239.3
2021-05-30T09:49:03,42.805,6.029,-0.009,-0.016,-0.013,100.0,101.0,102.0,13.4,1505.2,328.6,-0.8,1.8,2470.401,13.29,0.018,209.4
2021-05-30T09:52:03,42.805,6.029,-0.01,-0.008,0.002,102.0,99.0,100.0,13.3,1505.2,325.9,-0.7,1.8,2470.364,13.29,0.012,231.3